When you browse on this site, cookies collect data to enhance your experience and personalize the content and advertising you see.
Visit our Privacy Policy to learn more. By continuing to use the site, you agree to this use of cookies and data.
  • In Czech Republic
  • List of Countries
  • For 7 days
  • Water Temperature
  • Satellite Maps
  • Weather Map
  • Weather Widgets
  • user-avatar
    Login

    Hourly Weather Znobilovka

    Today, 19 February, Tuesday

    Time Temperature Precipitation Wind Pressure Humidity
    00:00 -12°C° 0 mm 6 mps 745 mmHg 84%
    01:00 -13°C° 0 mm 5 mps 746 mmHg 85%
    02:00 -13°C° 0 mm 5 mps 747 mmHg 86%
    03:00 -14°C° 0 mm 5 mps 747 mmHg 87%
    04:00 -14°C° 0 mm 5 mps 748 mmHg 88%
    05:00 -15°C° 0 mm 4 mps 748 mmHg 90%
    06:00 -16°C° 0 mm 4 mps 749 mmHg 91%
    07:00 -16°C° 0 mm 4 mps 749 mmHg 91%
    08:00 -16°C° 0 mm 4 mps 750 mmHg 91%
    09:00 -15°C° 0 mm 3 mps 750 mmHg 91%
    10:00 -14°C° 0 mm 3 mps 751 mmHg 89%
    11:00 -12°C° 0 mm 3 mps 751 mmHg 87%
    12:00 -9°C° 0 mm 2 mps 751 mmHg 85%
    13:00 -10°C° 0 mm 3 mps 751 mmHg 84%
    14:00 -9°C° 0 mm 3 mps 750 mmHg 84%
    15:00 -9°C° 0 mm 3 mps 750 mmHg 84%
    16:00 -10°C° 0 mm 4 mps 750 mmHg 85%
    17:00 -11°C° 0 mm 4 mps 749 mmHg 87%
    18:00 -11°C° 0 mm 4 mps 749 mmHg 88%
    19:00 -12°C° 0 mm 5 mps 749 mmHg 88%
    20:00 -12°C° 0 mm 5 mps 748 mmHg 88%
    21:00 -11°C° 0 mm 5 mps 748 mmHg 88%
    22:00 -11°C° 0 mm 5 mps 748 mmHg 88%
    23:00 -11°C° 0 mm 5 mps 747 mmHg 88%

    Tomorrow, 20 February, Wednesday

    Time Temperature Precipitation Wind Pressure Humidity
    00:00 -11°C° 0 mm 5 mps 747 mmHg 88%
    01:00 -11°C° 0 mm 5 mps 747 mmHg 89%
    02:00 -11°C° 0 mm 5 mps 747 mmHg 89%
    03:00 -11°C° 0 mm 5 mps 747 mmHg 89%
    04:00 -11°C° 0 mm 5 mps 746 mmHg 89%
    05:00 -11°C° 0 mm 5 mps 746 mmHg 89%
    06:00 -11°C° 0 mm 5 mps 745 mmHg 89%
    07:00 -11°C° 0 mm 5 mps 745 mmHg 88%
    08:00 -11°C° 0 mm 6 mps 744 mmHg 88%
    09:00 -10°C° 0 mm 6 mps 744 mmHg 87%
    10:00 -9°C° 0 mm 6 mps 744 mmHg 86%
    11:00 -8°C° 0 mm 7 mps 744 mmHg 84%
    12:00 -7°C° 0 mm 7 mps 743 mmHg 83%
    13:00 -6°C° 0 mm 7 mps 743 mmHg 83%
    14:00 -6°C° 0 mm 7 mps 743 mmHg 83%
    15:00 -4°C° 0 mm 7 mps 742 mmHg 83%
    16:00 -4°C° 0 mm 7 mps 742 mmHg 84%
    17:00 -4°C° 0 mm 6 mps 742 mmHg 85%
    18:00 -5°C° 0 mm 6 mps 742 mmHg 87%
    19:00 -4°C° 0.1 mm 6 mps 741 mmHg 88%
    20:00 -4°C° 0.1 mm 6 mps 741 mmHg 90%
    21:00 -4°C° 0.1 mm 6 mps 741 mmHg 91%
    22:00 -4°C° 0.1 mm 6 mps 740 mmHg 92%
    23:00 -4°C° 0.1 mm 6 mps 740 mmHg 92%

    Day after tomorrow, 21 February, Thursday

    Time Temperature Precipitation Wind Pressure Humidity
    00:00 -3°C° 0.1 mm 6 mps 739 mmHg 92%
    01:00 -3°C° 0.3 mm 6 mps 739 mmHg 93%
    02:00 -3°C° 0.3 mm 6 mps 739 mmHg 93%
    03:00 -3°C° 0.3 mm 6 mps 738 mmHg 93%
    04:00 -3°C° 0.1 mm 6 mps 738 mmHg 93%
    05:00 -2°C° 0.1 mm 5 mps 738 mmHg 94%
    06:00 -2°C° 0.1 mm 5 mps 737 mmHg 94%
    07:00 -2°C° 0 mm 5 mps 737 mmHg 94%
    08:00 -2°C° 0 mm 5 mps 737 mmHg 94%
    09:00 -2°C° 0 mm 5 mps 737 mmHg 94%
    10:00 -2°C° 0.1 mm 5 mps 736 mmHg 95%
    11:00 -2°C° 0.1 mm 5 mps 736 mmHg 96%
    12:00 -2°C° 0.1 mm 5 mps 736 mmHg 97%
    13:00 -2°C° 0.3 mm 5 mps 735 mmHg 96%
    14:00 -1°C° 0.3 mm 5 mps 735 mmHg 96%
    15:00 -1°C° 0.3 mm 5 mps 735 mmHg 95%
    16:00 -4°C° 0.1 mm 5 mps 735 mmHg 92%
    17:00 -5°C° 0.1 mm 5 mps 735 mmHg 89%
    18:00 -7°C° 0.1 mm 4 mps 735 mmHg 86%
    19:00 -7°C° 0.1 mm 4 mps 735 mmHg 89%
    20:00 -7°C° 0.1 mm 4 mps 735 mmHg 92%
    21:00 -6°C° 0.1 mm 3 mps 735 mmHg 94%
    22:00 -7°C° 0 mm 3 mps 735 mmHg 95%
    23:00 -7°C° 0 mm 3 mps 735 mmHg 95%

    22 February, Friday

    Time Temperature Precipitation Wind Pressure Humidity
    00:00 -8°C° 0 mm 3 mps 735 mmHg 95%
    01:00 -7°C° 0.1 mm 3 mps 735 mmHg 94%
    02:00 -7°C° 0.1 mm 4 mps 735 mmHg 93%
    03:00 -6°C° 0.1 mm 5 mps 735 mmHg 93%
    04:00 -6°C° 0.1 mm 5 mps 735 mmHg 92%
    05:00 -6°C° 0.1 mm 6 mps 735 mmHg 92%
    06:00 -6°C° 0.1 mm 6 mps 735 mmHg 92%
    07:00 -8°C° 0.1 mm 6 mps 736 mmHg 90%
    08:00 -9°C° 0.1 mm 6 mps 736 mmHg 89%
    09:00 -11°C° 0.1 mm 7 mps 737 mmHg 88%
    10:00 -10°C° 0 mm 6 mps 738 mmHg 87%
    11:00 -10°C° 0 mm 6 mps 738 mmHg 87%
    12:00 -10°C° 0 mm 6 mps 739 mmHg 86%
    13:00 -11°C° 0.1 mm 6 mps 740 mmHg 86%
    14:00 -11°C° 0.1 mm 6 mps 740 mmHg 85%
    15:00 -12°C° 0.1 mm 6 mps 741 mmHg 85%
    16:00 -12°C° 0.1 mm 6 mps 742 mmHg 86%
    17:00 -13°C° 0.1 mm 5 mps 742 mmHg 86%
    18:00 -14°C° 0.1 mm 5 mps 743 mmHg 87%
    19:00 -15°C° 0 mm 4 mps 743 mmHg 88%
    20:00 -16°C° 0 mm 4 mps 744 mmHg 89%
    21:00 -16°C° 0 mm 3 mps 744 mmHg 90%
    22:00 -16°C° 0 mm 3 mps 745 mmHg 91%
    23:00 -17°C° 0 mm 3 mps 745 mmHg 92%

    23 February, Saturday

    Time Temperature Precipitation Wind Pressure Humidity
    00:00 -17°C° 0 mm 3 mps 746 mmHg 93%
    01:00 -18°C° 0 mm 3 mps 746 mmHg 94%
    02:00 -18°C° 0 mm 3 mps 747 mmHg 94%
    03:00 -19°C° 0 mm 3 mps 747 mmHg 95%
    04:00 -19°C° 0 mm 3 mps 748 mmHg 95%
    05:00 -19°C° 0 mm 3 mps 748 mmHg 95%
    06:00 -18°C° 0 mm 2 mps 748 mmHg 96%
    07:00 -18°C° 0 mm 2 mps 749 mmHg 95%
    08:00 -17°C° 0 mm 2 mps 749 mmHg 95%
    09:00 -16°C° 0 mm 2 mps 750 mmHg 95%
    10:00 -15°C° 0 mm 2 mps 750 mmHg 93%
    11:00 -14°C° 0 mm 2 mps 750 mmHg 91%
    12:00 -13°C° 0 mm 2 mps 751 mmHg 89%
    13:00 -12°C° 0 mm 2 mps 751 mmHg 87%
    14:00 -12°C° 0 mm 2 mps 751 mmHg 86%
    15:00 -10°C° 0 mm 2 mps 751 mmHg 84%
    16:00 -12°C° 0 mm 2 mps 752 mmHg 86%
    17:00 -13°C° 0 mm 2 mps 752 mmHg 89%
    18:00 -13°C° 0 mm 2 mps 752 mmHg 91%
    19:00 -14°C° 0 mm 2 mps 753 mmHg 92%
    20:00 -15°C° 0 mm 2 mps 753 mmHg 93%
    21:00 -16°C° 0 mm 2 mps 753 mmHg 94%
    22:00 -16°C° 0 mm 2 mps 754 mmHg 94%
    23:00 -17°C° 0 mm 2 mps 754 mmHg 94%

    24 February, Sunday

    Time Temperature Precipitation Wind Pressure Humidity
    00:00 -17°C° 0 mm 2 mps 754 mmHg 95%
    01:00 -17°C° 0 mm 2 mps 754 mmHg 95%
    02:00 -17°C° 0 mm 2 mps 755 mmHg 95%
    03:00 -19°C° 0 mm 3 mps 755 mmHg 95%
    04:00 -19°C° 0 mm 3 mps 755 mmHg 95%
    05:00 -19°C° 0 mm 3 mps 756 mmHg 95%
    06:00 -19°C° 0 mm 3 mps 756 mmHg 95%
    07:00 -19°C° 0 mm 3 mps 756 mmHg 95%
    08:00 -18°C° 0 mm 3 mps 756 mmHg 95%
    09:00 -18°C° 0 mm 3 mps 757 mmHg 95%
    10:00 -16°C° 0 mm 3 mps 757 mmHg 95%
    11:00 -15°C° 0 mm 3 mps 757 mmHg 94%
    12:00 -15°C° 0 mm 4 mps 758 mmHg 93%
    13:00 -14°C° 0 mm 4 mps 757 mmHg 93%
    14:00 -14°C° 0 mm 4 mps 757 mmHg 93%
    15:00 -12°C° 0 mm 4 mps 757 mmHg 93%
    16:00 -14°C° 0 mm 4 mps 757 mmHg 93%
    17:00 -13°C° 0 mm 3 mps 757 mmHg 93%
    18:00 -13°C° 0 mm 3 mps 757 mmHg 94%
    19:00 -13°C° 0 mm 3 mps 757 mmHg 94%
    20:00 -14°C° 0 mm 3 mps 757 mmHg 94%
    21:00 -13°C° 0 mm 2 mps 757 mmHg 95%
    22:00 -13°C° 0 mm 2 mps 757 mmHg 95%
    23:00 -14°C° 0 mm 2 mps 756 mmHg 95%
    Show more